DHL831 MGGT-MROC

Flight info

Callsign DHL831
Flight time N/A
Altitude 35000
Route KAPAN2A KAPAN UG436 LIB BARRA3L
Aircraft B752/M-SDE2E3FGHIJ3J4J7RWXY/LB1

Departure

Time 2026-04-22 14:07
Airport La Aurora International Airport (MGGT)

Arrival

Time N/A
Airport Juan Santamaría International Airport (MROC)
Time Latitude Longitude Altitude Speed Heading
2026-04-22 13:04 14.58711 -90.52953 4960 ft 0 kts 287°
2026-04-22 13:25 14.58710 -90.52953 4959 ft 1 kts 287°
2026-04-22 13:25 14.58706 -90.52938 4958 ft 1 kts 287°
2026-04-22 13:25 14.58703 -90.52928 4958 ft 2 kts 284°
2026-04-22 13:26 14.58701 -90.52913 4957 ft 2 kts 273°
2026-04-22 13:26 14.58701 -90.52898 4957 ft 2 kts 264°
2026-04-22 13:26 14.58703 -90.52883 4958 ft 2 kts 255°
2026-04-22 13:26 14.58708 -90.52868 4958 ft 2 kts 246°
2026-04-22 13:27 14.58715 -90.52855 4959 ft 2 kts 237°
2026-04-22 13:27 14.58724 -90.52842 4959 ft 2 kts 228°
2026-04-22 13:27 14.58735 -90.52831 4959 ft 2 kts 219°
2026-04-22 13:27 14.58747 -90.52823 4959 ft 2 kts 210°
2026-04-22 13:28 14.58761 -90.52816 4959 ft 2 kts 200°
2026-04-22 13:28 14.58767 -90.52814 4959 ft 1 kts 196°
2026-04-22 13:28 14.58768 -90.52814 4959 ft 0 kts 196°
2026-04-22 13:44 14.58711 -90.52953 4960 ft 0 kts 287°
2026-04-22 13:57 14.58707 -90.52947 4959 ft 0 kts 314°
2026-04-22 13:57 14.58701 -90.52940 4959 ft 1 kts 295°
2026-04-22 13:57 14.58699 -90.52927 4959 ft 2 kts 274°
2026-04-22 13:57 14.58699 -90.52911 4959 ft 2 kts 265°
2026-04-22 13:58 14.58701 -90.52896 4959 ft 2 kts 257°
2026-04-22 13:58 14.58705 -90.52882 4959 ft 2 kts 248°
2026-04-22 13:58 14.58712 -90.52868 4959 ft 2 kts 238°
2026-04-22 13:58 14.58720 -90.52856 4959 ft 2 kts 229°
2026-04-22 13:59 14.58731 -90.52844 4959 ft 2 kts 220°
2026-04-22 13:59 14.58743 -90.52835 4959 ft 2 kts 211°
2026-04-22 13:59 14.58756 -90.52828 4959 ft 2 kts 202°
2026-04-22 13:59 14.58765 -90.52825 4959 ft 1 kts 196°
2026-04-22 14:00 14.58766 -90.52824 4959 ft 0 kts 196°
2026-04-22 14:01 14.58765 -90.52824 4959 ft 0 kts 196°
2026-04-22 14:01 14.58765 -90.52825 4959 ft 0 kts 196°
2026-04-22 14:01 14.58737 -90.52824 4959 ft 7 kts 165°
2026-04-22 14:02 14.58693 -90.52766 4959 ft 9 kts 106°
2026-04-22 14:02 14.58666 -90.52717 4959 ft 6 kts 163°
2026-04-22 14:02 14.58591 -90.52731 4959 ft 15 kts 196°
2026-04-22 14:02 14.58459 -90.52773 4959 ft 24 kts 198°
2026-04-22 14:03 14.58264 -90.52836 4959 ft 33 kts 198°
2026-04-22 14:03 14.58073 -90.52898 4959 ft 22 kts 197°
2026-04-22 14:03 14.57907 -90.52951 4960 ft 26 kts 197°
2026-04-22 14:03 14.57715 -90.53012 4960 ft 31 kts 197°
2026-04-22 14:04 14.57495 -90.53084 4961 ft 35 kts 197°
2026-04-22 14:04 14.57251 -90.53162 4961 ft 32 kts 197°
2026-04-22 14:04 14.57122 -90.53204 4961 ft 8 kts 194°
2026-04-22 14:04 14.57079 -90.53198 4961 ft 5 kts 141°
2026-04-22 14:05 14.57067 -90.53157 4961 ft 3 kts 67°
2026-04-22 14:05 14.57092 -90.53144 4961 ft 0 kts 18°
2026-04-22 14:06 14.57093 -90.53143 4961 ft 1 kts 18°
2026-04-22 14:06 14.57154 -90.53123 4961 ft 29 kts 17°
2026-04-22 14:06 14.57571 -90.52991 4961 ft 96 kts 17°
2026-04-22 14:06 14.58422 -90.52718 4960 ft 155 kts 15°
2026-04-22 14:07 14.59577 -90.52348 5221 ft 185 kts 18°
2026-04-22 14:07 14.60870 -90.51942 5826 ft 201 kts
2026-04-22 14:07 14.62294 -90.51868 6327 ft 212 kts
2026-04-22 14:07 14.63832 -90.51618 6418 ft 233 kts 11°
2026-04-22 14:08 14.65503 -90.51326 6671 ft 249 kts
2026-04-22 14:08 14.67237 -90.51027 7126 ft 255 kts 17°
2026-04-22 14:08 14.68780 -90.50175 7611 ft 258 kts 45°
2026-04-22 14:08 14.69725 -90.48596 8118 ft 263 kts 75°
2026-04-22 14:09 14.69784 -90.46720 8619 ft 268 kts 104°
2026-04-22 14:09 14.68970 -90.44997 9150 ft 272 kts 124°
2026-04-22 14:09 14.67852 -90.43391 9522 ft 283 kts 124°
2026-04-22 14:09 14.66680 -90.41674 9807 ft 296 kts 124°
2026-04-22 14:10 14.65509 -90.39961 10383 ft 298 kts 124°
2026-04-22 14:10 14.64267 -90.38143 10506 ft 318 kts 124°
2026-04-22 14:10 14.62961 -90.36231 10680 ft 336 kts 124°
2026-04-22 14:10 14.61595 -90.34232 11209 ft 341 kts 124°
2026-04-22 14:11 14.60224 -90.32225 11763 ft 344 kts 124°
2026-04-22 14:11 14.58843 -90.30202 12304 ft 347 kts 124°
2026-04-22 14:11 14.57314 -90.28234 12799 ft 352 kts 134°
2026-04-22 14:11 14.55435 -90.26599 13319 ft 355 kts 144°
2026-04-22 14:12 14.53385 -90.25218 13805 ft 358 kts 148°
2026-04-22 14:12 14.51201 -90.23941 14276 ft 361 kts 151°
2026-04-22 14:12 14.48955 -90.22727 14723 ft 363 kts 152°
2026-04-22 14:12 14.46683 -90.21558 15149 ft 365 kts 153°
2026-04-22 14:13 14.44415 -90.20424 15544 ft 367 kts 153°
2026-04-22 14:13 14.42075 -90.19273 15936 ft 370 kts 154°
2026-04-22 14:13 14.39745 -90.18139 16310 ft 372 kts 154°
2026-04-22 14:13 14.37390 -90.16998 16689 ft 374 kts 154°
2026-04-22 14:14 14.35024 -90.15855 17065 ft 375 kts 154°
2026-04-22 14:14 14.32657 -90.14714 17432 ft 377 kts 154°
2026-04-22 14:14 14.30293 -90.13574 17762 ft 379 kts 154°
2026-04-22 14:14 14.27883 -90.12414 18106 ft 381 kts 154°
2026-04-22 14:15 14.25458 -90.11246 18431 ft 384 kts 154°
2026-04-22 14:15 14.23027 -90.10076 18774 ft 386 kts 154°
2026-04-22 14:15 14.20583 -90.08900 19112 ft 388 kts 154°
2026-04-22 14:15 14.18115 -90.07712 19447 ft 390 kts 154°
2026-04-22 14:16 14.15638 -90.06520 19792 ft 392 kts 154°
2026-04-22 14:16 14.13187 -90.05340 20118 ft 394 kts 154°
2026-04-22 14:16 14.10696 -90.04141 20441 ft 395 kts 154°
2026-04-22 14:16 14.08185 -90.02934 20767 ft 397 kts 154°
2026-04-22 14:17 14.05670 -90.01723 21073 ft 399 kts 154°
2026-04-22 14:17 14.03164 -90.00517 21397 ft 400 kts 154°
2026-04-22 14:17 14.00617 -89.99291 21699 ft 402 kts 154°
2026-04-22 14:17 13.98078 -89.98068 21991 ft 404 kts 154°
2026-04-22 14:18 13.95533 -89.96842 22288 ft 406 kts 154°
2026-04-22 14:18 13.92935 -89.95591 22595 ft 408 kts 154°
2026-04-22 14:18 13.90347 -89.94344 22892 ft 410 kts 154°
2026-04-22 14:18 13.87764 -89.93100 23193 ft 412 kts 154°
2026-04-22 14:19 13.85170 -89.91849 23492 ft 414 kts 154°
2026-04-22 14:19 13.82568 -89.90595 23794 ft 416 kts 154°
2026-04-22 14:19 13.79913 -89.89315 24106 ft 418 kts 154°
2026-04-22 14:19 13.77295 -89.88052 24419 ft 420 kts 154°
2026-04-22 14:20 13.71949 -89.85475 25030 ft 424 kts 155°
2026-04-22 14:20 13.69265 -89.84181 25356 ft 425 kts 155°
2026-04-22 14:20 13.66595 -89.82893 25675 ft 426 kts 155°
2026-04-22 14:21 13.61199 -89.80291 26268 ft 429 kts 155°
2026-04-22 14:21 13.58501 -89.78989 26559 ft 431 kts 155°
2026-04-22 14:22 13.53010 -89.76341 27099 ft 434 kts 155°
2026-04-22 14:22 13.50280 -89.75024 27348 ft 436 kts 155°
2026-04-22 14:22 13.44776 -89.72368 27836 ft 439 kts 155°
2026-04-22 14:23 13.41971 -89.71014 28072 ft 441 kts 155°
2026-04-22 14:23 13.39194 -89.69674 28326 ft 443 kts 155°
2026-04-22 14:23 13.36410 -89.68330 28561 ft 444 kts 155°
2026-04-22 14:23 13.33615 -89.66980 28786 ft 446 kts 155°
2026-04-22 14:24 13.30798 -89.65620 29034 ft 447 kts 155°
2026-04-22 14:24 13.27973 -89.64256 29257 ft 449 kts 155°
2026-04-22 14:24 13.25137 -89.62887 29468 ft 450 kts 155°
2026-04-22 14:24 13.22305 -89.61519 29687 ft 451 kts 155°
2026-04-22 14:25 13.19447 -89.60139 29870 ft 453 kts 155°
2026-04-22 14:25 13.16601 -89.58764 30070 ft 454 kts 155°
2026-04-22 14:25 13.13728 -89.57376 30234 ft 456 kts 155°
2026-04-22 14:25 13.10821 -89.55971 30461 ft 456 kts 155°
2026-04-22 14:26 13.07952 -89.54584 30627 ft 458 kts 155°
2026-04-22 14:26 13.05066 -89.53190 30813 ft 458 kts 155°
2026-04-22 14:26 13.02202 -89.51806 30958 ft 460 kts 155°
2026-04-22 14:26 12.99267 -89.50387 31112 ft 461 kts 155°
2026-04-22 14:27 12.96382 -89.48991 31393 ft 458 kts 155°
2026-04-22 14:27 12.93504 -89.47601 31608 ft 458 kts 155°
2026-04-22 14:27 12.90641 -89.46216 31792 ft 457 kts 155°
2026-04-22 14:27 12.87743 -89.44813 32008 ft 456 kts 155°
2026-04-22 14:28 12.84882 -89.43430 32184 ft 456 kts 155°
2026-04-22 14:28 12.81995 -89.42033 32388 ft 455 kts 155°
2026-04-22 14:28 12.79143 -89.40654 32538 ft 455 kts 155°
2026-04-22 14:28 12.76289 -89.39272 32715 ft 454 kts 155°
2026-04-22 14:29 12.73450 -89.37898 32872 ft 454 kts 155°
2026-04-22 14:29 12.70576 -89.36507 33038 ft 453 kts 155°
2026-04-22 14:29 12.67723 -89.35126 33222 ft 453 kts 155°
2026-04-22 14:29 12.64862 -89.33742 33388 ft 452 kts 155°
2026-04-22 14:30 12.62005 -89.32358 33546 ft 452 kts 155°
2026-04-22 14:30 12.59197 -89.30998 33713 ft 452 kts 155°
2026-04-22 14:30 12.56319 -89.29604 33874 ft 452 kts 155°
2026-04-22 14:30 12.53473 -89.28226 34028 ft 452 kts 155°
2026-04-22 14:31 12.50637 -89.26852 34218 ft 451 kts 155°
2026-04-22 14:31 12.47805 -89.25481 34400 ft 450 kts 155°
2026-04-22 14:31 12.44975 -89.24110 34570 ft 450 kts 155°
2026-04-22 14:31 12.42142 -89.22736 34696 ft 450 kts 155°
2026-04-22 14:32 12.39340 -89.21378 34893 ft 448 kts 155°
2026-04-22 14:32 12.33754 -89.18671 34986 ft 442 kts 155°
2026-04-22 14:33 12.28165 -89.15962 34988 ft 444 kts 155°
2026-04-22 14:33 12.22567 -89.13248 34987 ft 446 kts 156°
2026-04-22 14:34 12.16926 -89.10512 34985 ft 447 kts 155°
2026-04-22 14:34 12.11318 -89.07791 34986 ft 447 kts 155°
2026-04-22 14:35 12.05670 -89.05051 34987 ft 447 kts 155°
2026-04-22 14:35 12.00056 -89.02326 34987 ft 447 kts 156°
2026-04-22 14:36 11.94426 -88.99593 34986 ft 447 kts 155°
2026-04-22 14:36 11.88800 -88.96861 34988 ft 447 kts 155°
2026-04-22 14:37 11.83208 -88.94145 34987 ft 447 kts 155°
2026-04-22 14:37 11.77561 -88.91402 34987 ft 447 kts 155°
2026-04-22 14:38 11.71926 -88.88664 34984 ft 447 kts 155°
2026-04-22 14:38 11.66305 -88.85931 34985 ft 447 kts 155°
2026-04-22 14:39 11.60683 -88.83199 34985 ft 448 kts 155°
2026-04-22 14:39 11.55056 -88.80462 34986 ft 449 kts 155°
2026-04-22 14:40 11.46576 -88.76337 34983 ft 449 kts 155°
2026-04-22 14:40 11.40918 -88.73584 34982 ft 450 kts 155°
2026-04-22 14:41 11.35270 -88.70835 34981 ft 449 kts 155°
2026-04-22 14:41 11.29609 -88.68079 34979 ft 449 kts 155°
2026-04-22 14:42 11.24010 -88.65282 34979 ft 451 kts 150°
2026-04-22 14:42 11.19183 -88.61211 34994 ft 454 kts 130°
2026-04-22 14:43 11.15928 -88.55705 34993 ft 455 kts 111°
2026-04-22 14:43 11.14648 -88.49409 34994 ft 457 kts 91°
2026-04-22 14:44 11.15414 -88.43006 34986 ft 459 kts 78°
2026-04-22 14:44 11.15824 -88.36591 34992 ft 458 kts 97°
2026-04-22 14:45 11.14642 -88.30269 34995 ft 458 kts 104°
2026-04-22 14:45 11.12979 -88.23961 34489 ft 468 kts 106°
2026-04-22 14:46 11.12073 -88.20819 33774 ft 469 kts 107°
2026-04-22 14:46 11.11135 -88.17641 33049 ft 465 kts 107°
2026-04-22 14:46 11.10204 -88.14530 32388 ft 460 kts 107°
2026-04-22 14:46 11.09277 -88.11465 31762 ft 457 kts 107°
2026-04-22 14:47 11.08328 -88.08345 31125 ft 456 kts 107°
2026-04-22 14:47 11.07393 -88.05282 30501 ft 457 kts 107°
2026-04-22 14:47 11.06457 -88.02226 29884 ft 459 kts 107°
2026-04-22 14:47 11.05505 -87.99122 29260 ft 461 kts 107°
2026-04-22 14:48 11.04545 -87.95995 28632 ft 462 kts 107°
2026-04-22 14:48 11.03596 -87.92910 28014 ft 463 kts 107°
2026-04-22 14:48 11.02633 -87.89780 27390 ft 463 kts 107°
2026-04-22 14:48 11.01670 -87.86653 26761 ft 458 kts 107°
2026-04-22 14:49 11.00732 -87.83606 26140 ft 453 kts 107°
2026-04-22 14:49 10.99796 -87.80569 25799 ft 441 kts 107°
2026-04-22 14:49 10.98897 -87.77651 25792 ft 424 kts 107°
2026-04-22 14:49 10.98036 -87.74856 25789 ft 408 kts 107°
2026-04-22 14:50 10.97194 -87.72123 25808 ft 410 kts 107°
2026-04-22 14:50 10.96335 -87.69336 25811 ft 419 kts 107°
2026-04-22 14:50 10.95459 -87.66499 25808 ft 425 kts 107°
2026-04-22 14:50 10.94568 -87.63614 25801 ft 424 kts 107°
2026-04-22 14:51 10.93690 -87.60768 25803 ft 422 kts 107°
2026-04-22 14:51 10.92816 -87.57940 25801 ft 421 kts 107°
2026-04-22 14:51 10.91931 -87.55076 25805 ft 423 kts 107°
2026-04-22 14:51 10.91054 -87.52242 25804 ft 424 kts 107°
2026-04-22 14:52 10.90169 -87.49379 25802 ft 424 kts 107°
2026-04-22 14:52 10.89283 -87.46517 25804 ft 423 kts 107°
2026-04-22 14:52 10.88396 -87.43654 25802 ft 423 kts 107°
2026-04-22 14:52 10.87520 -87.40825 25805 ft 423 kts 107°
2026-04-22 14:53 10.86636 -87.37968 25802 ft 423 kts 107°
2026-04-22 14:53 10.85753 -87.35120 25803 ft 422 kts 107°
2026-04-22 14:53 10.84871 -87.32275 25802 ft 422 kts 107°
2026-04-22 14:53 10.83996 -87.29450 25804 ft 422 kts 107°
2026-04-22 14:54 10.83106 -87.26583 25806 ft 423 kts 107°
2026-04-22 14:54 10.82221 -87.23729 25800 ft 423 kts 107°
2026-04-22 14:54 10.81344 -87.20903 25806 ft 424 kts 107°
2026-04-22 14:54 10.80450 -87.18027 25802 ft 424 kts 107°
2026-04-22 14:55 10.79567 -87.15183 25801 ft 424 kts 107°
2026-04-22 14:55 10.78682 -87.12336 25799 ft 423 kts 107°
2026-04-22 14:55 10.77793 -87.09478 25799 ft 423 kts 107°
2026-04-22 14:55 10.76908 -87.06632 25797 ft 422 kts 107°
2026-04-22 14:56 10.76023 -87.03787 25797 ft 423 kts 107°
2026-04-22 14:56 10.75138 -87.00942 25798 ft 423 kts 107°
2026-04-22 14:56 10.74253 -86.98097 25796 ft 423 kts 107°
2026-04-22 14:56 10.73377 -86.95284 25798 ft 423 kts 107°
2026-04-22 14:57 10.72485 -86.92423 25799 ft 422 kts 107°
2026-04-22 14:57 10.71598 -86.89575 25798 ft 422 kts 107°
2026-04-22 14:57 10.70712 -86.86732 25798 ft 422 kts 107°
2026-04-22 14:57 10.69830 -86.83903 25797 ft 423 kts 107°
2026-04-22 14:58 10.68944 -86.81064 25798 ft 423 kts 107°
2026-04-22 14:58 10.68049 -86.78199 25800 ft 424 kts 107°
2026-04-22 14:58 10.67161 -86.75352 25799 ft 423 kts 107°
2026-04-22 14:58 10.66267 -86.72490 25796 ft 423 kts 107°
2026-04-22 14:59 10.65386 -86.69669 25799 ft 422 kts 107°
2026-04-22 14:59 10.64496 -86.66823 25798 ft 424 kts 107°
2026-04-22 14:59 10.63606 -86.63973 25795 ft 423 kts 107°
2026-04-22 14:59 10.62708 -86.61103 25795 ft 422 kts 107°
2026-04-22 15:00 10.61827 -86.58287 25797 ft 421 kts 107°
2026-04-22 15:00 10.60939 -86.55449 25798 ft 422 kts 107°
2026-04-22 15:00 10.60045 -86.52593 25794 ft 422 kts 107°
2026-04-22 15:00 10.59165 -86.49783 25795 ft 423 kts 107°
2026-04-22 15:01 10.58265 -86.46908 25796 ft 423 kts 107°
2026-04-22 15:01 10.57374 -86.44066 25792 ft 423 kts 107°
2026-04-22 15:01 10.56486 -86.41232 25794 ft 423 kts 107°
2026-04-22 15:01 10.55592 -86.38382 25795 ft 423 kts 107°
2026-04-22 15:02 10.54707 -86.35563 25794 ft 423 kts 107°
2026-04-22 15:02 10.54425 -86.34663 25792 ft 423 kts 107°